Skip Page Navigation
NASA JPL Caltech
NASA Logo - Jet Propulsion Laboratory + View the NASA Portal
+ Center for Near-Earth Object Studies
JPL Home Earth Solar System Stars & Galaxies Technology
JPL Solar System Dynamics
BODIES ORBITS EPHEMERIDES TOOLS PHYSICAL DATA DISCOVERY FAQ SITE MAP
IMPORTANT: The SSD Announcement email list is now available. Major changes are coming in the near future, including possible hostname and/or URL changes. To be notified of such changes, subscribe to this email list.

Please visit this page for more details.


JPL Small-Body Database Browser
Search: [ help ]  
441708 (2009 AB32)
Classification: Main-belt Asteroid          SPK-ID: 2441708
Ephemeris | Orbit Diagram | Orbital Elements | Mission Design | Physical Parameters | Discovery Circumstances | Close-Approach Data ]

[ show orbit diagram ]
Orbital Elements at Epoch 2458600.5 (2019-Apr-27.0) TDB
Reference: JPL 12 (heliocentric ecliptic J2000)
 Element Value Uncertainty (1-sigma)   Units 
e .1666395452667758 9.9475e-08  
a 2.709815115356551 6.3695e-08 au
q 2.2582527567765 2.3954e-07 au
i 9.534958127887284 1.0098e-05 deg
node 307.4394407683937 5.802e-05 deg
peri 283.3654262331961 7.2926e-05 deg
M 22.27690889524992 3.5329e-05 deg
tp 2458499.676830416335
(2019-Jan-16.17683042)
0.00016096 TDB
period 1629.325739077685
4.46
5.7446e-05
1.573e-07
d
yr
n .2209502933426841 7.7902e-09 deg/d
Q 3.161377473936602 7.4309e-08 au
  Orbit Determination Parameters
   # obs. used (total)      69  
   data-arc span      4639 days (12.70 yr)  
   first obs. used      2006-09-17  
   last obs. used      2019-05-31  
   planetary ephem.      DE431  
   SB-pert. ephem.      SB431-N16  
   condition code      0  
   norm. resid. RMS      .60272  
   source      ORB  
   producer      Otto Matic  
   solution date      2019-Sep-24 07:42:19  

Additional Information
 Earth MOID = 1.27063 au 
 Jupiter MOID = 1.97149 au 
 T_jup = 3.324 
[ show covariance matrix ]

Ephemeris | Orbit Diagram | Orbital Elements | Mission Design | Physical Parameters | Discovery Circumstances | Close-Approach Data ]

Physical Parameter Table
Parameter Symbol Value Units Sigma Reference Notes
absolute magnitude H 17.1   n/a MPO434639  

441708 (2009 AB32)          Discovered 2009-Jan-02 by Spacewatch at Kitt Peak
Reference: Last Updated: 2015-09-02

[ hide close-approach data ]
Close-Approach Data   ...sorted by Date/Time (TDB)
Date/Time (TDB) Time Uncertainty
(days_HH:MM)
Body Nominal Distance (au) Minimum Distance (au) Maximum Distance (au) V-relative (km/s) V-infinity (km/s) JD (TDB) Time Uncertainty (minutes) Semi-major axis (km) Semi-minor axis (km) range-LOV angle (deg) N-sigma BP Orbit Ref. Reference Modified
1905-Feb-02 10:34 00:12 Jupiter 1.96368105935358 1.96367989877839 1.96368221992777 1.7162141467747 1.4431571348606 2416878.940258279 11.6937876320345 189.593322001835 98.7602653300319 46.7030939905508 1005338.79465706 T 12 CATAB v2.0f-lin.ifort 2019-Sep-24 07:42:21 2019-Sep-24 07:42
1940-Nov-08 07:58 00:08 Jupiter 1.95904861967718 1.95904729173382 1.9590499476173 1.69699990328899 1.4195352213332 2429941.832101978 7.69717398750011 199.131612149534 110.566126183799 9.0102742962691 578250.39262388 T 12 CATAB v2.0f-lin.ifort 2019-Sep-24 07:42:21 2019-Sep-24 07:42
1976-Aug-16 03:47 00:04 Jupiter 1.96695855676634 1.96695719367641 1.96695991985337 1.80864691656721 1.55240222394891 2443006.657894188 3.80580831730774 194.638448795891 89.877968863666 -29.5532395801008 602301.928075692 T 12 CATAB v2.0f-lin.ifort 2019-Sep-24 07:42:21 2019-Sep-24 07:42
2012-May-23 14:18 < 00:01 Jupiter 1.97086867310192 1.97086751999714 1.97086982620615 1.97632782605277 1.74537370097885 2456071.095653390 0.509895972487133 112.94953385183 62.1305410925958 -56.6169331337027 1029939.65472744 T 12 CATAB v2.0f-lin.ifort 2019-Sep-24 07:42:21 2019-Sep-24 07:42
2048-Feb-29 05:16 00:04 Jupiter 1.98262567324851 1.98262473458351 1.98262661191384 2.20057745006816 1.99702175569236 2469135.719313816 3.84078839993865 208.568031694311 40.2729773742364 -65.3604097115288 1092611.35960117 T 12 CATAB v2.0f-lin.ifort 2019-Sep-24 07:42:21 2019-Sep-24 07:42
Ephemeris | Orbit Diagram | Orbital Elements | Mission Design | Physical Parameters | Discovery Circumstances | Close-Approach Data ]
ABOUT SSD CREDITS/AWARDS PRIVACY/COPYRIGHT GLOSSARY LINKS
FirstGov 2019-Dec-15 05:59 UT
(server date/time)  
NASA Home Page
Site Manager:   Ryan S. Park
Webmaster  Alan B. Chamberlin